When you browse on this site, cookies collect data to enhance your experience and personalize the content and advertising you see.
Visit our Privacy Policy to learn more. By continuing to use the site, you agree to this use of cookies and data.
  • în România
  • Lista ţărilor
  • Pe 7 zile
  • Temperatura apei
  • Meteo pe hartă
  • Widget-uri
  • user-avatar
    Intrare

    Meteo pe oră la Palma de Mallorca

    Astăzi, 29 Mai, Vineri

    Timp Temperatura Precipitaţii Vânt Presiune Umiditate
    00:00 +18°C° 0 mm 2 m/s 763 mmHg 76%
    01:00 +18°C° 0 mm 2 m/s 763 mmHg 76%
    02:00 +19°C° 0 mm 1 m/s 762 mmHg 76%
    03:00 +18°C° 0 mm 1 m/s 762 mmHg 76%
    04:00 +19°C° 0 mm 1 m/s 762 mmHg 73%
    05:00 +20°C° 0 mm 1 m/s 762 mmHg 70%
    06:00 +21°C° 0 mm 1 m/s 762 mmHg 63%
    07:00 +22°C° 0 mm 1 m/s 761 mmHg 58%
    08:00 +24°C° 0 mm 2 m/s 761 mmHg 53%
    09:00 +25°C° 0 mm 2 m/s 761 mmHg 47%
    10:00 +26°C° 0 mm 2 m/s 761 mmHg 47%
    11:00 +26°C° 0 mm 3 m/s 761 mmHg 47%
    12:00 +27°C° 0 mm 3 m/s 761 mmHg 47%
    13:00 +26°C° 0 mm 3 m/s 761 mmHg 46%
    14:00 +26°C° 0 mm 3 m/s 760 mmHg 46%
    15:00 +26°C° 0 mm 3 m/s 760 mmHg 46%
    16:00 +25°C° 0 mm 3 m/s 760 mmHg 48%
    17:00 +24°C° 0 mm 3 m/s 759 mmHg 51%
    18:00 +22°C° 0 mm 3 m/s 759 mmHg 53%
    19:00 +21°C° 0 mm 3 m/s 760 mmHg 57%
    20:00 +20°C° 0 mm 3 m/s 760 mmHg 61%
    21:00 +19°C° 0 mm 3 m/s 760 mmHg 65%
    22:00 +19°C° 0 mm 3 m/s 760 mmHg 65%
    23:00 +18°C° 0 mm 3 m/s 760 mmHg 66%

    Mâine, 30 Mai, Sâmbătă

    Timp Temperatura Precipitaţii Vânt Presiune Umiditate
    00:00 +18°C° 0 mm 3 m/s 760 mmHg 66%
    01:00 +18°C° 0 mm 2 m/s 760 mmHg 65%
    02:00 +18°C° 0 mm 2 m/s 760 mmHg 65%
    03:00 +18°C° 0 mm 2 m/s 760 mmHg 64%
    04:00 +19°C° 0 mm 2 m/s 760 mmHg 60%
    05:00 +19°C° 0 mm 2 m/s 760 mmHg 57%
    06:00 +21°C° 0 mm 1 m/s 760 mmHg 53%
    07:00 +23°C° 0 mm 1 m/s 760 mmHg 49%
    08:00 +24°C° 0 mm 1 m/s 760 mmHg 44%
    09:00 +26°C° 0 mm 1 m/s 760 mmHg 40%
    10:00 +26°C° 0 mm 2 m/s 760 mmHg 41%
    11:00 +26°C° 0 mm 2 m/s 760 mmHg 43%
    12:00 +27°C° 0 mm 3 m/s 760 mmHg 44%
    13:00 +26°C° 0 mm 3 m/s 760 mmHg 45%
    14:00 +26°C° 0 mm 3 m/s 760 mmHg 46%
    15:00 +26°C° 0 mm 3 m/s 760 mmHg 48%
    16:00 +25°C° 0 mm 3 m/s 759 mmHg 50%
    17:00 +24°C° 0 mm 2 m/s 759 mmHg 52%
    18:00 +24°C° 0 mm 2 m/s 759 mmHg 54%
    19:00 +21°C° 0 mm 2 m/s 759 mmHg 59%
    20:00 +20°C° 0 mm 2 m/s 759 mmHg 64%
    21:00 +20°C° 0 mm 1 m/s 759 mmHg 69%
    22:00 +20°C° 0 mm 1 m/s 759 mmHg 68%
    23:00 +19°C° 0 mm 2 m/s 759 mmHg 68%

    Poimâine, 31 Mai, Duminică

    Timp Temperatura Precipitaţii Vânt Presiune Umiditate
    00:00 +18°C° 0 mm 2 m/s 759 mmHg 67%
    01:00 +18°C° 0 mm 2 m/s 759 mmHg 67%
    02:00 +19°C° 0 mm 1 m/s 759 mmHg 67%
    03:00 +19°C° 0 mm 1 m/s 759 mmHg 67%
    04:00 +19°C° 0 mm 2 m/s 759 mmHg 66%
    05:00 +19°C° 0 mm 2 m/s 759 mmHg 65%
    06:00 +20°C° 0 mm 2 m/s 759 mmHg 63%
    07:00 +22°C° 0 mm 3 m/s 759 mmHg 60%
    08:00 +24°C° 0 mm 3 m/s 759 mmHg 56%
    09:00 +26°C° 0 mm 3 m/s 759 mmHg 52%
    10:00 +26°C° 0 mm 3 m/s 759 mmHg 52%
    11:00 +27°C° 0 mm 4 m/s 759 mmHg 51%
    12:00 +27°C° 0 mm 4 m/s 759 mmHg 51%
    13:00 +27°C° 0 mm 4 m/s 759 mmHg 50%
    14:00 +27°C° 0 mm 4 m/s 759 mmHg 49%
    15:00 +27°C° 0 mm 4 m/s 759 mmHg 48%
    16:00 +26°C° 0 mm 4 m/s 759 mmHg 51%
    17:00 +25°C° 0 mm 4 m/s 758 mmHg 53%
    18:00 +23°C° 0 mm 4 m/s 758 mmHg 55%
    19:00 +22°C° 0 mm 3 m/s 758 mmHg 60%
    20:00 +21°C° 0 mm 3 m/s 758 mmHg 64%
    21:00 +20°C° 0 mm 3 m/s 759 mmHg 69%
    22:00 +20°C° 0 mm 3 m/s 759 mmHg 69%
    23:00 +20°C° 0 mm 2 m/s 759 mmHg 68%

    1 Iunie, Luni

    Timp Temperatura Precipitaţii Vânt Presiune Umiditate
    00:00 +19°C° 0 mm 2 m/s 759 mmHg 68%
    01:00 +19°C° 0 mm 2 m/s 759 mmHg 69%
    02:00 +19°C° 0 mm 2 m/s 759 mmHg 70%
    03:00 +19°C° 0 mm 2 m/s 759 mmHg 71%
    04:00 +19°C° 0 mm 2 m/s 759 mmHg 68%
    05:00 +20°C° 0 mm 2 m/s 759 mmHg 65%
    06:00 +21°C° 0 mm 2 m/s 759 mmHg 62%
    07:00 +23°C° 0 mm 2 m/s 760 mmHg 57%
    08:00 +25°C° 0 mm 2 m/s 760 mmHg 52%
    09:00 +26°C° 0 mm 2 m/s 760 mmHg 47%
    10:00 +26°C° 0 mm 3 m/s 760 mmHg 48%
    11:00 +27°C° 0 mm 3 m/s 760 mmHg 48%
    12:00 +27°C° 0 mm 3 m/s 761 mmHg 49%
    13:00 +27°C° 0 mm 3 m/s 761 mmHg 50%
    14:00 +27°C° 0 mm 3 m/s 761 mmHg 51%
    15:00 +27°C° 0 mm 2 m/s 761 mmHg 51%
    16:00 +26°C° 0 mm 3 m/s 760 mmHg 54%
    17:00 +25°C° 0 mm 3 m/s 760 mmHg 57%
    18:00 +24°C° 0 mm 3 m/s 760 mmHg 60%
    19:00 +22°C° 0 mm 3 m/s 761 mmHg 67%
    20:00 +21°C° 0 mm 2 m/s 761 mmHg 74%
    21:00 +20°C° 0 mm 2 m/s 761 mmHg 80%
    22:00 +20°C° 0 mm 2 m/s 761 mmHg 79%
    23:00 +19°C° 0 mm 2 m/s 761 mmHg 78%

    2 Iunie, Marţi

    Timp Temperatura Precipitaţii Vânt Presiune Umiditate
    00:00 +20°C° 0 mm 1 m/s 761 mmHg 77%
    01:00 +20°C° 0 mm 1 m/s 760 mmHg 78%
    02:00 +20°C° 0 mm 1 m/s 760 mmHg 78%
    03:00 +19°C° 0 mm 2 m/s 760 mmHg 78%
    04:00 +19°C° 0 mm 2 m/s 760 mmHg 75%
    05:00 +20°C° 0 mm 2 m/s 760 mmHg 72%
    06:00 +21°C° 0 mm 2 m/s 760 mmHg 69%
    07:00 +23°C° 0 mm 2 m/s 760 mmHg 63%
    08:00 +25°C° 0 mm 3 m/s 760 mmHg 56%
    09:00 +26°C° 0 mm 3 m/s 761 mmHg 49%
    10:00 +27°C° 0 mm 3 m/s 760 mmHg 48%
    11:00 +27°C° 0 mm 3 m/s 760 mmHg 47%
    12:00 +28°C° 0 mm 3 m/s 760 mmHg 46%
    13:00 +27°C° 0 mm 4 m/s 759 mmHg 46%
    14:00 +27°C° 0 mm 4 m/s 759 mmHg 46%
    15:00 +27°C° 0 mm 4 m/s 758 mmHg 46%
    16:00 +26°C° 0 mm 4 m/s 758 mmHg 50%
    17:00 +25°C° 0 mm 4 m/s 758 mmHg 55%
    18:00 +23°C° 0 mm 4 m/s 757 mmHg 59%
    19:00 +22°C° 0 mm 3 m/s 757 mmHg 64%
    20:00 +21°C° 0 mm 3 m/s 757 mmHg 69%
    21:00 +20°C° 0 mm 3 m/s 757 mmHg 73%
    22:00 +20°C° 0 mm 3 m/s 756 mmHg 73%
    23:00 +20°C° 0 mm 3 m/s 756 mmHg 73%

    3 Iunie, Miercuri

    Timp Temperatura Precipitaţii Vânt Presiune Umiditate
    00:00 +20°C° 0 mm 3 m/s 756 mmHg 73%
    01:00 +20°C° 0 mm 3 m/s 755 mmHg 74%
    02:00 +20°C° 0 mm 3 m/s 755 mmHg 74%
    03:00 +19°C° 0 mm 3 m/s 754 mmHg 75%
    04:00 +20°C° 0 mm 3 m/s 754 mmHg 72%
    05:00 +21°C° 0 mm 3 m/s 754 mmHg 69%
    06:00 +21°C° 0 mm 3 m/s 753 mmHg 66%
    07:00 +24°C° 0 mm 3 m/s 753 mmHg 59%
    08:00 +26°C° 0 mm 3 m/s 753 mmHg 52%
    09:00 +28°C° 0 mm 4 m/s 753 mmHg 45%
    10:00 +28°C° 0 mm 4 m/s 753 mmHg 44%
    11:00 +29°C° 0 mm 4 m/s 753 mmHg 42%
    12:00 +29°C° 0 mm 4 m/s 752 mmHg 41%
    13:00 +29°C° 0 mm 4 m/s 752 mmHg 42%
    14:00 +29°C° 0 mm 4 m/s 751 mmHg 43%
    15:00 +29°C° 0 mm 4 m/s 751 mmHg 44%
    16:00 +28°C° 0 mm 3 m/s 750 mmHg 48%
    17:00 +27°C° 0 mm 3 m/s 750 mmHg 53%
    18:00 +26°C° 0 mm 3 m/s 749 mmHg 58%
    19:00 +25°C° 0 mm 3 m/s 750 mmHg 63%
    20:00 +22°C° 0 mm 4 m/s 750 mmHg 67%
    21:00 +21°C° 0 mm 4 m/s 750 mmHg 72%
    22:00 +21°C° 0 mm 4 m/s 749 mmHg 74%
    23:00 +21°C° 0 mm 4 m/s 749 mmHg 76%
    Arată mai mult